Location: Newark
(41.9831°N, 91.6686°W)
Time: 01:49:18
(UTC+00:00)

Envisat - Visible Passes

Search period start: 16 October 2019 00:00
Search period end: 26 October 2019 00:00
Orbit: 764 x 766 km, 98.1° (Epoch: 15 October)

Date Brightness Start Highest point End Pass type
(mag) Time Alt. Az. Time Alt. Az. Time Alt. Az.
16 Oct 6.0 01:38:41 10° WSW 01:41:23 14° W 01:44:05 10° WNW visible
17 Oct 4.9 00:59:47 10° SSW 01:04:17 32° W 01:08:48 10° NNW visible
18 Oct 3.3 00:22:19 10° S 00:27:22 71° WSW 00:32:28 10° NNW visible
18 Oct 3.1 23:45:45 10° SSE 23:50:40 53° ENE 23:55:36 10° N visible
19 Oct 5.7 01:26:32 10° SW 01:29:59 18° W 01:33:28 10° NW visible
19 Oct 6.1 11:55:17 10° NE 11:58:42 18° E 12:02:07 10° SE visible
20 Oct 4.4 00:48:13 10° SSW 00:52:57 40° W 00:57:44 10° NNW visible
21 Oct 3.0 00:11:02 10° SSE 00:16:06 88° WSW 00:21:14 10° NNW visible
21 Oct 3.4 23:34:42 10° SE 23:39:28 42° ENE 23:44:14 10° N visible
22 Oct 5.4 01:14:39 10° SW 01:18:38 23° W 01:22:38 10° NW visible
22 Oct 6.3 11:44:42 10° ENE 11:47:19 14° E 11:49:56 10° ESE visible
23 Oct 3.9 00:36:43 10° S 00:41:39 50° W 00:46:36 10° NNW visible
23 Oct 2.9 23:59:48 10° SSE 00:04:51 74° ENE 00:09:56 10° N visible
24 Oct 6.1 01:42:07 10° WSW 01:44:24 13° W 01:46:43 10° WNW visible
25 Oct 5.0 01:02:54 10° SSW 01:07:17 29° W 01:11:41 10° NW visible
25 Oct 6.7 11:34:45 10° ENE 11:35:55 11° E 11:37:04 10° E visible
